Regional Weather Roundup
Issued by NWS

Home | Current Version | Previous Version | Text Only | Print | Product List | Glossary On
Versions: 1 2 3 4 5 6 7 8 9 10 11 12 13 14 15 16 17 18 19 20 21 22 23 24 25 26 27 28 29 30 31 32 33 34 35 36 37 38 39 40 41 42 43 44 45 46 47 48 49 50
000
ASUS44 KJAN 231610
RWRMS

MISSISSIPPI HOURLY WEATHER ROUNDUP
NATIONAL WEATHER SERVICE JACKSON MS
1100 AM CDT WED MAY 23 2018

NOTE: "FAIR: INDICATES FEW OR NO CLOUDS BELOW 12,000 FEET WITH NO
SIGNIFICANT WEATHER AND/OR OBSTRUCTIONS TO VISIBILITY.

MSZ001>002-007>008-010>013-018>021-025>028-034>036-231700-
NORTHWEST MISSISSIPPI

CITY           SKY/WX    TMP DP  RH WIND       PRES   REMARKS
BATESVILLE       N/A    N/A N/A N/A MISG        N/A
CLARKSDALE     MOSUNNY   84  75  74 N5        30.11R HX  92
CLEVELAND      FAIR      84  72  66 N3        30.10S HX  90
GREENWOOD      FAIR      85  72  65 CALM      30.10S HX  91
GREENVILLE     FAIR      84  73  69 VRB3      30.09S HX  90
OLIVE BRANCH   PTSUNNY   81  73  78 N6        30.12R
TUNICA           N/A     82  73  74 NE5       30.12R
WINONA         FAIR      82  72  70 CALM      30.11S
$$

MSZ003>006-009-014>017-022>024-029>033-037>039-231700-
NORTHEAST MISSISSIPPI

CITY           SKY/WX    TMP DP  RH WIND       PRES   REMARKS
ABERDEEN         N/A     88  84  89 VRB5      30.12R HX 112
COLUMBUS AFB   FAIR      82  70  67 N6        30.09S
CORINTH        PTSUNNY   84  70  61 VRB3      30.12R
GOLDN TRIANGLE FAIR      86  72  62 NW7       30.10S HX  92
STARKVILLE     FAIR      84  70  61 NW5       30.11S
TUPELO         FAIR      84  68  58 VRB5      30.11R
$$

MSZ040-058-231700-
CENTRAL MISSISSIPPI

CITY           SKY/WX    TMP DP  RH WIND       PRES   REMARKS
JACKSON INTL   FAIR      83  71  67 CALM      30.11R
JACKSON HAWKNS FAIR      86  73  65 VRB6      30.11S HX  93
MADISON        FAIR      81  70  69 NW5       30.11R
MERIDIAN KEY   FAIR      86  70  58 N6        30.10S HX  90
MERIDIAN NAS   FAIR      86  69  56 CALM      30.11S HX  90
RAYMOND        FAIR      82  72  69 VRB5      30.11R
VICKSBURG VKS  SUNNY     82  72  69 CALM        N/A
$$

MSZ059>079-231700-
SOUTH MISSISSIPPI

CITY           SKY/WX    TMP DP  RH WIND       PRES   REMARKS
COLUMBIA       FAIR      82  70  65 CALM      30.14S
HATTIESBURG    FAIR      85  73  67 CALM      30.11S HX  91
LAUREL         PTSUNNY   83  71  67 W8        30.10F
MCCOMB         FAIR      86  69  56 N5        30.10S HX  90
NATCHEZ        FAIR      84  71  65 NW6       30.11S
PINE BELT      FAIR     N/A N/A N/A CALM      30.11S
$$

MSZ080>082-231700-
COASTAL MISSISSIPPI

CITY           SKY/WX    TMP DP  RH WIND       PRES   REMARKS
BAY ST LOUIS   PTSUNNY   86  72  62 N6        30.08S HX  92
BILOXI         CLOUDY    84  73  69 SW8       30.08R HX  90
PASCAGOULA     FAIR      85  70  60 E3        30.09R
GULFPORT       PTSUNNY   84  73  69 SW5       30.07S HX  90
$$

LAZ007>009-015>016-023>026-231700-
NORTHEAST LOUISIANA

CITY           SKY/WX    TMP DP  RH WIND       PRES   REMARKS
TALLULAH/VBURG FAIR      83  73  72 NW3       30.10S
VIDALIA        FAIR      85  72  65 N5        30.09S HX  90
$$



USA.gov is the U.S. government's official web portal to all federal, state and local government web resources and services.